Showing default

SPAINSAT NG II, 66144

Orbit data source: Space-Track

SPAINSAT NG II, 66144 is a payload satellite owned by Hisdesat (ES) in HEO that was launched on Fri, 24 Oct 2025 UTC via an FALCON 9 launch vehicle from the Air Force Eastern Test Range (AFETR). Payload-class satellites include a variety of spacecraft equipped with specific instruments for various scientific and technological missions. These include communications satellites like Starlink; space stations such as the ISS; scientific satellites like the Hubble; Earth observation satellites from companies like Planet Labs, Umbra, and HawkEye 360; GPS; miniature CubeSats for education and research; and military/defense satellites.

Loading next visibility...
Identifier
66144, 2025-239A
Orbit
HEO
Country
Flag of ESES / SPN
Related business
Manufacturer
ADST/ADSUK
Mission
Operational spacecraft
Bus & Motor
EUROSTAR NEO, PPS-5000
Mass
6,100 kg wet, ~5,500 kg dry
Launch date (UTC)
2025-10-24 (1 week ago)
Launch vehicle
FALCON 9
Launch site
Air Force Eastern Test Range (AFETR)
Object type
Payload
Rocket body
Debris
Shape & HBR
Unknown
Radar Cross Section
RCS unknown

Expand to show TLE details & history
Last TLE update: 4 days ago

TLE from 4 days ago
0 SPAINSAT NG II
1 66144U 25239A   25300.94827511 -.00000130  00000-0  18821-2 0  9996
2 66144  26.1863 246.2237 8189144 179.5119 183.0640  1.15299465    63
Epoch: 2025-10-27T22:45Z
TLE epoch observation values (Epoch: 2025-10-27T22:45:30.969Z)
Latitude
0.00023°
Longitude
-131.72258°
Altitude
63,496.489 km
Speed
1.016 km/s
True Right ascension
16h 24m 47s
True Declination
0° 00' 01"
Sunlit
Object was in daylight at epoch
Visualization orbit readout
Latitude
Unknown
Longitude
Unknown
Altitude
Unknown
Speed
Unknown
Apparent Right ascension
Unknown
Apparent Declination
Unknown
Sunlit
N/A
Visualization observer readout
Local Sidereal Time
15:44:24
Azimuth
Unknown
Elevation
Unknown
Doppler factor
Unknown
Orbital elements
Apogee altitude
63,505.909 km
Perigee altitude
579.307 km
Semi-major axis
38,420.745 km
Eccentricity
0.81891
Inclination
26.1863°
RAAN
246.2237°
Arg. of periapsis
179.5119°
True anomaly
180.53158°
Mean anomaly
183.064°
Eccentric anomaly
181.68463°
Mean motion
0.2882 °/min
Orbital period
1,249.13 mins
BSTAR
0.0018821
Loading maneuver chart data...
Computing Atmospheric mass density...
Loading historical data...
Loading historical data...
Loading historical data...
Loading historical data...
Loading historical data...
Loading historical data...
Loading historical data...
Other satellites on launch #239 in the year 2025 (2025-10-24 UTC)

Documentation

Showing up to 5 results
|